Location: Newark
(49.8348°N, 24.0280°E)
Time: 01:09:56
(UTC+00:00)

Explorer 7 - Pass Details

Date: 25 January 2020
Orbit: 485 x 679 km, 50.3° (Epoch: 27 February)

Event Time Altitude Azimuth Distance (km) Brightness Sun altitude
Rises 00:14:07 0° 273° (W) 2,549 - -53.6°
Reaches altitude 10° 00:16:16 10° 274° (W) 1,672 - -53.4°
Maximum altitude 00:20:02 82° 2° (N) 504 - -53.0°
Drops below altitude 10° 00:23:55 10° 91° (E) 1,722 - -52.5°
Sets 00:26:10 0° 92° (E) 2,633 - -52.3°
